TimeAKST,TemperatureF,Dew PointF,Humidity,Sea Level PressureIn,VisibilityMPH,Wind Direction,Wind SpeedMPH,Gust SpeedMPH,PrecipitationIn,Events,Conditions,WindDirDegrees,DateUTC
12:53 AM,10.9,6.1,81,30.59,10.0,NW,8.1,-,N/A,,Clear,320,2011-11-16 09:53:00
1:53 AM,12.9,7.0,77,30.58,10.0,NW,10.4,-,N/A,,Clear,310,2011-11-16 10:53:00
2:53 AM,10.0,5.0,80,30.58,10.0,North,5.8,-,N/A,,Mostly Cloudy,360,2011-11-16 11:53:00
3:53 AM,15.1,10.9,84,30.58,10.0,West,9.2,-,N/A,,Scattered Clouds,280,2011-11-16 12:53:00
4:53 AM,14.0,10.0,84,30.58,10.0,WNW,9.2,-,N/A,,Scattered Clouds,300,2011-11-16 13:53:00
5:53 AM,14.0,10.0,84,30.57,10.0,WNW,6.9,-,N/A,,Scattered Clouds,300,2011-11-16 14:53:00
6:13 AM,12.2,8.6,85,30.57,10.0,North,4.6,-,N/A,,Mostly Cloudy,360,2011-11-16 15:13:00
6:48 AM,12.2,8.6,85,30.57,10.0,NNW,3.5,-,N/A,,Overcast,330,2011-11-16 15:48:00
6:53 AM,12.0,8.1,84,30.58,10.0,NW,4.6,-,N/A,,Overcast,320,2011-11-16 15:53:00
7:53 AM,8.1,3.9,83,30.57,10.0,North,6.9,-,N/A,,Overcast,360,2011-11-16 16:53:00
8:53 AM,8.1,3.9,83,30.57,10.0,Calm,Calm,-,N/A,,Mostly Cloudy,0,2011-11-16 17:53:00
9:53 AM,9.0,5.0,84,30.58,10.0,NNW,5.8,-,N/A,,Scattered Clouds,340,2011-11-16 18:53:00
10:53 AM,7.0,3.0,84,30.58,10.0,Calm,Calm,-,N/A,,Scattered Clouds,0,2011-11-16 19:53:00
11:53 AM,9.0,5.0,84,30.60,10.0,WNW,8.1,-,N/A,,Scattered Clouds,300,2011-11-16 20:53:00
12:53 PM,12.9,7.0,77,30.60,10.0,NNW,5.8,-,N/A,,Scattered Clouds,330,2011-11-16 21:53:00
1:53 PM,12.9,6.1,74,30.61,10.0,WNW,6.9,-,N/A,,Scattered Clouds,300,2011-11-16 22:53:00
2:53 PM,10.9,3.0,70,30.61,10.0,WNW,5.8,-,N/A,,Scattered Clouds,300,2011-11-16 23:53:00
3:53 PM,12.9,3.9,67,30.61,10.0,North,8.1,-,N/A,,Partly Cloudy,350,2011-11-17 00:53:00
4:53 PM,10.0,3.0,73,30.61,10.0,North,6.9,-,N/A,,Scattered Clouds,360,2011-11-17 01:53:00
5:53 PM,9.0,1.0,70,30.63,10.0,North,4.6,-,N/A,,Scattered Clouds,10,2011-11-17 02:53:00
6:53 PM,5.0,-0.0,80,30.63,10.0,North,5.8,-,N/A,,Scattered Clouds,350,2011-11-17 03:53:00
7:53 PM,5.0,-0.9,76,30.62,10.0,North,6.9,-,N/A,,Scattered Clouds,360,2011-11-17 04:53:00
8:53 PM,8.1,-0.0,70,30.63,10.0,NNW,5.8,-,N/A,,Scattered Clouds,330,2011-11-17 05:53:00
9:53 PM,3.0,-2.0,80,30.63,10.0,Calm,Calm,-,N/A,,Scattered Clouds,0,2011-11-17 06:53:00
10:53 PM,3.0,-2.0,80,30.64,10.0,NNE,5.8,-,N/A,,Scattered Clouds,30,2011-11-17 07:53:00
11:53 PM,7.0,1.9,80,30.63,10.0,NNW,3.5,-,N/A,,Scattered Clouds,340,2011-11-17 08:53:00